Date,TemperatureHighF,TemperatureAvgF,TemperatureLowF,DewpointHighF,DewpointAvgF,DewpointLowF,HumidityHigh,HumidityAvg,HumidityLow,PressureMaxIn,PressureMinIn,WindSpeedMaxMPH,WindSpeedAvgMPH,GustSpeedMaxMPH,PrecipitationSumIn
2013-4-1,64,48,36,44,38,31,91,71,44,30.17,29.97,17,5,17,0.00
2013-4-2,42,38,35,36,34,30,92,87,62,30.24,30.15,14,6,14,0.53
2013-4-3,50,42,36,37,29,24,84,61,39,30.23,30.13,19,6,22,0.05
2013-4-4,62,48,36,39,34,29,85,61,35,30.14,30.04,12,2,14,0.00
2013-4-5,73,53,29,43,35,26,90,56,26,30.18,29.97,12,3,12,0.00
2013-4-6,77,64,54,49,44,36,63,50,35,29.97,29.79,29,10,29,0.00
2013-4-7,78,65,53,59,54,48,89,69,49,29.92,29.75,24,8,24,0.00
2013-4-8,73,66,59,61,58,54,92,76,66,29.81,29.71,21,9,21,0.35
2013-4-9,80,71,64,64,60,56,77,68,56,29.78,29.70,22,11,22,0.00
2013-4-10,73,45,36,64,42,34,95,90,68,29.89,29.72,19,6,19,2.60
2013-4-11,54,40,33,36,32,28,94,75,44,29.89,29.74,16,5,16,0.02
2013-4-12,60,44,31,38,32,28,92,65,41,30.02,29.79,15,3,15,0.00
2013-4-13,72,54,38,50,41,32,86,64,38,30.04,29.78,19,5,19,0.00
2013-4-14,80,68,58,53,49,45,66,52,37,29.79,29.55,25,11,27,0.00
2013-4-15,79,66,53,65,56,44,84,70,62,29.85,29.67,18,6,20,0.00
2013-4-16,75,59,50,62,54,47,93,82,60,29.98,29.84,11,4,11,0.00
2013-4-17,84,72,58,69,63,54,94,76,56,29.94,29.63,26,10,26,0.02
2013-4-18,72,49,37,66,44,28,96,85,68,30.00,29.55,22,8,22,3.89
2013-4-19,58,44,33,33,29,25,78,58,34,30.10,29.97,16,6,18,0.00
2013-4-20,69,51,33,42,35,28,86,58,30,30.18,30.07,12,3,12,0.00
2013-4-21,71,57,47,44,40,36,78,55,32,30.24,30.10,20,7,20,0.00
2013-4-22,73,60,45,48,42,37,77,55,37,30.17,29.89,21,6,22,0.00
2013-4-23,60,48,36,52,43,33,93,84,63,30.11,29.81,12,5,14,0.17
2013-4-24,57,43,33,35,31,27,93,67,34,30.29,30.10,12,4,12,0.01
2013-4-25,75,51,28,47,33,24,88,56,24,30.35,30.18,10,2,10,0.00
2013-4-26,57,52,48,49,45,36,93,81,50,30.31,30.08,24,9,24,0.68
2013-4-27,57,52,50,55,51,48,96,94,92,30.09,29.92,25,4,25,0.32
2013-4-28,82,61,50,55,51,48,95,73,37,30.03,29.86,9,2,9,0.00
2013-4-29,86,71,54,63,55,50,88,61,34,29.90,29.77,19,7,19,0.00
2013-4-30,83,71,57,58,52,45,84,55,28,29.87,29.80,24,8,24,0.00